Regional Weather Roundup
Issued by NWS

Home | Current Version | Previous Version | Text Only | Print | Product List | Glossary On
Versions: 1 2 3 4 5 6 7 8 9 10 11 12 13 14 15 16 17 18 19 20 21 22 23 24 25 26 27 28 29 30 31 32 33 34 35 36 37 38 39 40 41 42 43 44 45 46 47 48 49 50
000
ASUS46 KSEW 211410
RWRWA

WASHINGTON REGIONAL WEATHER ROUNDUP
NATIONAL WEATHER SERVICE SEATTLE WA
700 AM PDT THU AUG 21 2014

NOTE:"FAIR" INDICATES FEW OR NO CLOUDS BELOW 12,000 FEET WITH NO
SIGNIFICANT WEATHER AND/OR OBSTRUCTIONS TO VISIBILITY.

WAZ505-507>509-211500-
SEATTLE, TACOMA, EVERETT, AND VICINITY

CITY           SKY/WX    TMP DP  RH WIND       PRES   REMARKS
EVERETT        CLOUDY    55  50  83 S10       30.04R
BOEING FIELD   MOCLDY    57  51  80 CALM      30.04R
RENTON         MOCLDY    56  52  86 E3        30.04R
SEATAC AIRPORT MOCLDY    53  50  89 S3        30.04S
JBLM-MCCHORD   CLEAR     48  48  99 S5        30.04S
PUYALLUP       NOT AVBL
JBLM-FT LEWIS  CLOUDY    50  48  93 SE2       30.04R
TACOMA NARROWS CLEAR     52  49  89 S7        30.03S
$$

WAZ001-503-506-510-514-515-211500-
NORTH INTERIOR

CITY           SKY/WX    TMP DP  RH WIND       PRES   REMARKS
BELLINGHAM     PTCLDY    57  51  80 S6        30.01S
FRIDAY HARBOR  PTCLDY    50  49  96 CALM      30.03R
EASTSOUND      PTCLDY    54  52  94 S10       29.99S FOG
PORT ANGELES   CLOUDY    53  50  89 W3        30.02S
NAS WHIDBEY    CLOUDY    55  52  89 SE5       30.03S
BURLINGTON     CLOUDY    52  52 100 CALM      30.04R
$$

WAZ020-022-039-040-504-511-512-211500-
SOUTHWEST INTERIOR

CITY           SKY/WX    TMP DP  RH WIND       PRES   REMARKS
SHELTON        CLOUDY    53  48  83 SW6       30.01S
OLYMPIA        PTCLDY    46  45  96 CALM      30.04S
CHEHALIS       CLOUDY    48  48 100 CALM      30.05R
KELSO          CLOUDY    54  48  82 CALM      30.08R
VANCOUVER      CLEAR     51  48  89 CALM      30.05R
SCAPPOOSE, OR  CLEAR     49  47  93 NW3       30.05R
PORTLAND, OR   PTCLDY    56  52  86 CALM      30.06R
$$

WAZ021-516-517-211500-
WASHINGTON COAST

CITY           SKY/WX    TMP DP  RH WIND       PRES   REMARKS
FORKS          CLOUDY    54  52  93 CALM      30.03R FOG
HOQUIAM        CLOUDY    55  51  86 CALM      30.04R
ASTORIA, OR    MOCLDY    53  51  93 SE5       30.04R
$$

WAZ019-023-024-040-518-519-211500-
CASCADE MOUNTAINS AND COLUMBIA GORGE

CITY           SKY/WX    TMP DP  RH WIND       PRES   REMARKS
STAMPEDE PASS  NOT AVBL
TROUTDALE, OR  CLEAR     51  47  86 CALM      30.04R
THE DALLES, OR CLEAR     61  47  59 W9        29.96R
$$

WAZ026-027-041>044-520-521-211500-
EAST SLOPES

CITY           SKY/WX    TMP DP  RH WIND       PRES   REMARKS
OMAK           MOCLDY    63  48  58 N7        29.93R
WENATCHEE      CLEAR     65  46  50 NW12      29.93R
ELLENSBURG     PTCLDY    57  47  69 CALM      29.95R
YAKIMA         PTCLDY    52  41  66 W6        29.94R
$$

WAZ028-034-035-211500-
COLUMBIA BASIN

CITY           SKY/WX    TMP DP  RH WIND       PRES   REMARKS
EPHRATA        CLEAR     60  52  74 NE9       29.91R
MOSES LAKE     CLEAR     56  50  80 E6        29.92R
PASCO          CLEAR     63  50  62 S10       29.93R
HERMISTON, OR  CLEAR     62  46  55 SW7       29.94R
$$

WAZ036>038-211500-
NORTHEAST WASHINGTON

CITY           SKY/WX    TMP DP  RH WIND       PRES   REMARKS
SPOKANE GEIGER PTCLDY    57  54  89 E6        29.98R
SPOKANE FELTS  CLOUDY    59  55  87 CALM      29.98R
FAIRCHILD AFB  MOCLDY    55  53  93 E5        29.98R
COEURDALENE,ID MOSUNNY   55  52  88 NE9       29.99R
DEER PARK      CLOUDY    56  53  90 CALM      29.99R
$$

WAZ029>033-211500-
SOUTHEAST WASHINGTON

CITY           SKY/WX    TMP DP  RH WIND       PRES   REMARKS
PULLMAN        SUNNY     56  44  64 N7        30.01R
LEWISTON, ID   MOSUNNY   60  43  53 CALM      29.96R
WALLA WALLA    PTCLDY    62  45  53 S6        29.97R
PENDLETON, OR  CLEAR     55  41  59 SE8       29.97R
$$


USA.gov is the U.S. government's official web portal to all federal, state and local government web resources and services.